Wichita Jabara, KS

3:56 AM CDT on June 25, 2017 (GMT -0500)
Col Jabara

Weather History for KAAO - November, 2012

Change the Weather History Date:

Tuesday, November 27, 2012

  Actual Average (KIAB) Record (KIAB)
Temperature  
Mean Temperature 32 °F -  
Max Temperature 44 °F 49 °F 59 °F (2006)
Min Temperature 19 °F 31 °F 17 °F (2013)
Degree Days  
Heating Degree Days 34    
Moisture  
Dew Point 22 °F    
Average Humidity 74    
Maximum Humidity 96    
Minimum Humidity 47    
Precipitation  
Precipitation 0.00 in - - ()
Sea Level Pressure  
Sea Level Pressure 30.40 in    
Wind  
Wind Speed 7 mph (South)    
Max Wind Speed 15 mph    
Max Gust Speed -    
Visibility 9 miles    
Events      
Averages and records for this station are not official NWS values.
T = Trace of Precipitation, MM = Missing Value Source: NWS Daily Summary

Daily Weather History Graph

Daily Weather History Graph

Search for Another Location

Airport or City:

Trip Planner

Search our weather history database for the weather conditions in past years. The results will help you decide how hot, cold, wet, or windy it might be!

Date:

Astronomy

Nov. 27, 2012 Rise Set
Actual Time 7:22 AM CST 5:11 PM CST
Civil Twilight 6:53 AM CST 5:39 PM CST
Nautical Twilight 6:20 AM CST 6:12 PM CST
Astronomical Twilight 5:49 AM CST 6:43 PM CST
Moon 4:43 PM CST (11/27) 6:28 AM CST (11/27)
Length of Visible Light 10h 46m
Length of Day
9h 49m
Waxing Gibbous, 99% of the Moon is Illuminated
Nov 27
Waxing Gibbous
Nov 28
Full
Dec 6
Last Quarter
Dec 13
New
Dec 19
First Quarter

Hourly Weather History & Observations

Time (CST) Temp. Windchill Dew Point Humidity Pressure Visibility Wind Dir Wind Speed Gust Speed Precip Events Conditions
12:54 AM 23.0 °F 13.9 °F 19.9 °F 88% 30.48 in 7.0 mi North 8.1 mph - N/A   Clear
1:54 AM 19.9 °F 12.1 °F 18.0 °F 92% 30.47 in 7.0 mi North 5.8 mph - N/A   Clear
2:54 AM 19.9 °F 12.1 °F 19.0 °F 96% 30.47 in 6.0 mi North 5.8 mph - N/A   Clear
3:54 AM 19.9 °F 13.4 °F 18.0 °F 92% 30.46 in 7.0 mi North 4.6 mph - N/A   Clear
4:54 AM 19.9 °F 14.9 °F 18.0 °F 92% 30.45 in 6.0 mi North 3.5 mph - N/A   Clear
5:54 AM 19.0 °F 12.3 °F 17.1 °F 92% 30.46 in 6.0 mi North 4.6 mph - N/A   Clear
6:54 AM 19.0 °F - 18.0 °F 96% 30.47 in 6.0 mi Calm Calm - N/A   Clear
7:54 AM 19.0 °F 13.9 °F 17.1 °F 92% 30.48 in 6.0 mi South 3.5 mph - N/A   Clear
8:54 AM 25.0 °F 19.3 °F 21.0 °F 85% 30.49 in 8.0 mi South 4.6 mph - N/A   Clear
9:54 AM 30.0 °F 22.4 °F 23.0 °F 75% 30.49 in 10.0 mi South 8.1 mph - N/A   Clear
10:54 AM 34.0 °F 27.2 °F 24.1 °F 67% 30.47 in 9.0 mi South 8.1 mph - N/A   Clear
11:54 AM 37.9 °F 30.5 °F 23.0 °F 55% 30.43 in 10.0 mi South 11.5 mph - N/A   Clear
12:54 PM 39.9 °F 33.4 °F 24.1 °F 53% 30.39 in 10.0 mi South 10.4 mph - N/A   Clear
1:54 PM 43.0 °F 35.7 °F 25.0 °F 49% 30.34 in 10.0 mi South 15.0 mph - N/A   Clear
2:54 PM 44.1 °F 37.1 °F 25.0 °F 47% 30.30 in 10.0 mi South 15.0 mph - N/A   Clear
3:54 PM 43.0 °F 36.4 °F 25.0 °F 49% 30.29 in 10.0 mi South 12.7 mph - N/A   Clear
4:54 PM 41.0 °F 33.9 °F 25.0 °F 53% 30.30 in 10.0 mi SSW 12.7 mph - N/A   Clear
5:54 PM 34.0 °F 27.2 °F 24.1 °F 67% 30.31 in 10.0 mi South 8.1 mph - N/A   Clear
6:54 PM 34.0 °F 29.8 °F 24.1 °F 67% 30.32 in 10.0 mi South 4.6 mph - N/A   Clear
7:54 PM 32.0 °F 26.4 °F 23.0 °F 69% 30.33 in 10.0 mi South 5.8 mph - N/A   Clear
8:54 PM 30.9 °F 26.2 °F 23.0 °F 72% 30.33 in 10.0 mi SSE 4.6 mph - N/A   Clear
9:54 PM 30.9 °F 26.2 °F 23.0 °F 72% 30.33 in 10.0 mi SSE 4.6 mph - N/A   Clear
10:54 PM 30.0 °F 25.2 °F 21.9 °F 72% 30.34 in 10.0 mi SSE 4.6 mph - N/A   Clear
11:54 PM 28.0 °F 20.8 °F 21.0 °F 75% 30.35 in 10.0 mi South 6.9 mph - N/A   Clear